WE0DX-1 Weather Reports


Display with metric or nautical units.
time (UTC)temp
F
wind
direction
speed
MPH
gust
MPH
rain 1hr
in
rain 24hr
in
rain mn
in
humidity
%
barometer
mb
20260903084056 82 136 0.0 0.0 0.00 0.00 0.00 61 1012.3
20260903083552 82 158 0.0 0.0 0.00 0.00 0.00 62 1012.4
20260903083052 82 90 0.0 0.0 0.00 0.00 0.00 62 1012.4
20260903082546 82 133 0.0 0.0 0.00 0.00 0.00 63 1012.4
20260903082041 82 92 0.0 0.0 0.00 0.00 0.00 63 1012.2
20260903081536 82 92 0.0 0.0 0.00 0.00 0.00 62 1012.2
20260903081032 82 89 0.0 0.0 0.00 0.00 0.00 62 1012.1
20260903080529 83 95 0.0 0.0 0.00 0.00 0.00 60 1012.0
20260903080025 83 79 0.0 0.0 0.00 0.00 0.00 60 1012.2
20260903075520 82 88 0.0 0.0 0.00 0.00 0.00 61 1012.2
20260903075015 82 134 0.0 0.0 0.00 0.00 0.00 61 1012.3
20260903074514 83 102 0.0 0.0 0.00 0.00 0.00 61 1012.4
20260903074009 83 103 0.0 0.0 0.00 0.00 0.00 60 1012.3
20260903073504 83 112 0.0 0.0 0.00 0.00 0.00 60 1012.1
20260903073000 83 105 0.0 0.0 0.00 0.00 0.00 59 1012.2
20260903072455 83 86 0.0 0.0 0.00 0.00 0.00 60 1012.3
20260903071952 83 106 0.0 0.0 0.00 0.00 0.00 60 1012.2
20260903071448 83 90 0.0 0.0 0.00 0.00 0.00 61 1012.2
20260903070944 83 100 0.0 0.0 0.00 0.00 0.00 61 1012.3
20260903070444 83 103 0.0 0.0 0.00 0.00 0.00 61 1012.3
20260903065943 82 110 0.0 0.0 0.00 0.00 0.00 62 1012.4
20260903065439 82 100 0.0 0.0 0.00 0.00 0.00 62 1012.4
20260903064938 82 98 0.0 0.0 0.00 0.00 0.00 62 1012.2
20260903064433 82 90 0.0 0.0 0.00 0.00 0.00 62 1012.4
20260903063928 82 100 0.0 0.0 0.00 0.00 0.00 62 1012.4
20260903063424 82 92 0.0 0.0 0.00 0.00 0.00 62 1012.5
20260903062920 83 86 0.0 0.0 0.00 0.00 0.00 61 1012.5
20260903062420 83 93 0.0 0.0 0.00 0.00 0.00 61 1012.5
20260903061915 83 87 0.0 0.0 0.00 0.00 0.00 61 1012.5
20260903061414 83 127 0.0 0.0 0.00 0.00 0.00 60 1012.4
20260903060911 84 107 0.0 0.0 0.00 0.00 0.00 59 1012.5
20260903060410 84 86 0.0 0.0 0.00 0.00 0.00 60 1012.2
20260903055908 84 104 0.0 0.0 0.00 0.00 0.00 59 1012.5
20260903055407 84 99 0.0 0.0 0.00 0.00 0.00 59 1012.8
20260903054901 84 121 0.0 0.0 0.00 0.00 0.00 59 1012.5
20260903054355 84 95 0.0 0.0 0.00 0.00 0.00 59 1012.7
20260903053852 84 90 0.0 0.0 0.00 0.00 0.00 59 1012.4
20260903053346 84 100 0.0 0.0 0.00 0.00 0.00 58 1012.2
20260903052843 84 100 0.0 0.0 0.00 0.00 0.00 58 1012.2
20260903052338 85 105 0.0 0.0 0.00 0.00 0.00 58 1012.4
20260903051834 85 95 0.0 0.0 0.00 0.00 0.00 58 1012.4
20260903051329 85 104 0.0 0.0 0.00 0.00 0.00 58 1012.4
20260903050825 84 93 0.0 0.0 0.00 0.00 0.00 58 1012.2
20260903050323 84 90 0.0 0.0 0.00 0.00 0.00 59 1012.3
20260903045818 85 88 0.0 0.0 0.00 0.00 0.00 59 1012.3
20260903045314 85 106 0.0 0.0 0.00 0.00 0.00 58 1012.1
20260903044811 85 97 0.0 0.0 0.00 0.00 0.00 58 1012.2
20260903044305 85 99 0.0 0.0 0.00 0.00 0.00 58 1012.3
20260903043802 85 98 0.0 0.0 0.00 0.00 0.00 58 1012.4
20260903043302 86 105 0.0 0.0 0.00 0.00 0.00 57 1012.4
20260903042800 86 96 0.0 0.0 0.00 0.00 0.00 57 1012.5
20260903042251 86 95 0.0 0.0 0.00 0.00 0.00 57 1012.3
20260903041747 86 121 0.0 0.0 0.00 0.00 0.00 57 1012.3
20260903041243 86 75 0.0 0.0 0.00 0.00 0.00 56 1012.4
20260903040742 86 100 0.0 0.0 0.00 0.00 0.00 56 1012.5
20260903040237 86 102 0.0 0.0 0.00 0.00 0.00 56 1012.3
20260903035733 86 115 0.0 0.0 0.00 0.00 0.00 56 1012.5
20260903035229 86 103 0.0 0.0 0.00 0.00 0.00 56 1012.5
20260903034728 86 99 0.0 0.0 0.00 0.00 0.00 56 1012.7
20260903034224 86 88 0.0 0.0 0.00 0.00 0.00 56 1012.5
20260903033719 87 103 0.0 0.0 0.00 0.00 0.00 56 1012.3
20260903033214 87 97 0.0 0.0 0.00 0.00 0.00 55 1012.5
20260903032708 87 97 0.0 0.0 0.00 0.00 0.00 55 1012.7
20260903032204 87 121 0.0 0.0 0.00 0.00 0.00 54 1012.7
20260903031700 87 107 0.0 0.0 0.00 0.00 0.00 54 1012.2
20260903031154 87 95 0.0 0.0 0.00 0.00 0.00 54 1012.4
20260903030650 88 133 0.0 0.0 0.00 0.00 0.00 53 1012.5
20260903030145 88 112 0.0 0.0 0.00 0.00 0.00 53 1012.4
20260903025640 88 112 0.0 0.0 0.00 0.00 0.00 53 1012.3
20260903025136 88 108 0.0 0.0 0.00 0.00 0.00 53 1012.3
20260903024630 88 104 0.0 0.0 0.00 0.00 0.00 52 1012.1
20260903024124 88 96 0.0 0.0 0.00 0.00 0.00 52 1012.1
20260903023620 88 94 0.0 0.0 0.00 0.00 0.00 52 1012.7
20260903023120 88 117 0.0 0.0 0.00 0.00 0.00 52 1012.1
20260903022615 89 89 0.0 0.0 0.00 0.00 0.00 52 1012.4
20260903022114 88 98 0.0 0.0 0.00 0.00 0.00 52 1012.3
20260903021608 89 91 0.0 0.0 0.00 0.00 0.00 52 1012.3
20260903021103 89 89 0.0 0.0 0.00 0.00 0.00 51 1012.3
20260903020559 89 94 0.0 0.0 0.00 0.00 0.00 51 1012.1
20260903020058 89 88 0.0 0.0 0.00 0.00 0.00 51 1012.0
20260903015554 89 105 0.0 0.0 0.00 0.00 0.00 50 1011.9
20260903015043 89 94 0.0 0.0 0.00 0.00 0.00 50 1011.9
20260903014543 90 97 0.0 0.0 0.00 0.00 0.00 48 1011.9
20260903014038 90 96 0.0 0.0 0.00 0.00 0.00 48 1011.9
20260903013537 90 95 0.0 0.0 0.00 0.00 0.00 48 1011.8
20260903013032 90 93 0.0 0.0 0.00 0.00 0.00 47 1011.4
20260903012525 90 98 0.0 0.0 0.00 0.00 0.00 48 1011.7
20260903012019 90 106 0.0 0.0 0.00 0.00 0.00 47 1011.9
20260903011519 90 127 0.0 0.0 0.00 0.00 0.00 48 1011.3
20260903011014 91 94 0.0 0.0 0.00 0.00 0.00 48 1011.4
20260903010509 91 106 0.0 0.0 0.00 0.00 0.00 48 1011.5
20260903010007 91 95 0.0 0.0 0.00 0.00 0.00 47 1011.5
20260903005502 92 93 0.0 0.0 0.00 0.00 0.00 47 1011.7
20260903004958 92 112 0.0 0.0 0.00 0.00 0.00 45 1011.4
20260903004458 93 95 0.0 0.0 0.00 0.00 0.00 45 1011.5
20260903003954 93 102 0.0 0.0 0.00 0.00 0.00 45 1011.5
20260903003449 93 102 0.0 0.0 0.00 0.00 0.00 45 1011.5
20260903002944 93 103 0.0 0.0 0.00 0.00 0.00 44 1011.5
20260903002444 93 126 0.0 0.0 0.00 0.00 0.00 44 1011.4
20260903001944 93 106 0.0 0.0 0.00 0.00 0.00 44 1011.7
20260903001444 94 98 0.0 0.0 0.00 0.00 0.00 45 1011.4
20260903000938 94 93 0.0 0.0 0.00 0.00 0.00 44 1011.7
20260903000434 94 115 0.0 0.0 0.00 0.00 0.00 44 1011.5
20260902235932 94 97 0.0 0.0 0.00 0.00 0.00 44 1011.4
20260902235427 95 98 0.0 0.0 0.00 0.00 0.00 44 1011.6
20260902234926 95 89 0.0 0.0 0.00 0.00 0.00 43 1011.7
20260902234421 95 108 0.0 0.0 0.00 0.00 0.00 43 1011.6
20260902233921 95 156 2.0 6.0 0.00 0.00 0.00 43 1011.5
20260902233415 95 128 0.0 0.0 0.00 0.00 0.00 43 1011.5
20260902232915 96 130 0.0 0.0 0.00 0.00 0.00 43 1011.5
20260902232410 96 126 0.0 0.0 0.00 0.00 0.00 43 1011.8
20260902231909 96 105 0.0 0.0 0.00 0.00 0.00 43 1011.4
20260902231403 96 129 1.0 3.0 0.00 0.00 0.00 42 1011.6
20260902230852 96 101 0.0 0.0 0.00 0.00 0.00 42 1011.7
20260902230352 96 109 0.0 2.0 0.00 0.00 0.00 42 1011.7
20260902225846 97 83 0.0 0.0 0.00 0.00 0.00 42 1011.7
20260902225342 96 172 2.0 5.0 0.00 0.00 0.00 41 1011.8
20260902224840 97 123 0.0 1.0 0.00 0.00 0.00 41 1011.8
20260902224335 97 106 1.0 2.0 0.00 0.00 0.00 40 1011.6
20260902223832 97 128 0.0 0.0 0.00 0.00 0.00 40 1011.5
20260902223331 97 57 0.0 7.0 0.00 0.00 0.00 40 1011.7
20260902222831 97 200 0.0 1.0 0.00 0.00 0.00 40 1011.5
20260902222329 97 224 1.0 1.0 0.00 0.00 0.00 40 1011.6
20260902221824 97 127 0.0 0.0 0.00 0.00 0.00 42 1011.7
20260902221323 98 190 0.0 0.0 0.00 0.00 0.00 41 1011.6
20260902220819 97 196 3.0 6.0 0.00 0.00 0.00 40 1011.7
20260902220319 97 99 0.0 2.0 0.00 0.00 0.00 42 1011.6
20260902215814 97 190 3.0 6.0 0.00 0.00 0.00 40 1011.7
20260902215309 97 114 0.0 0.0 0.00 0.00 0.00 42 1011.6
20260902214805 97 100 0.0 0.0 0.00 0.00 0.00 41 1011.9
20260902214304 97 212 2.0 5.0 0.00 0.00 0.00 41 1011.9
20260902213800 97 64 1.0 2.0 0.00 0.00 0.00 40 1012.1
20260902213255 97 217 3.0 3.0 0.00 0.00 0.00 42 1012.0
20260902212753 97 177 0.0 6.0 0.00 0.00 0.00 41 1011.9
20260902212250 97 127 0.0 0.0 0.00 0.00 0.00 42 1012.2
20260902211745 96 179 0.0 1.0 0.00 0.00 0.00 43 1012.1
20260902211241 96 201 1.0 2.0 0.00 0.00 0.00 43 1012.4
20260902210735 97 179 3.0 5.0 0.00 0.00 0.00 42 1012.1
20260902210230 98 214 0.0 0.0 0.00 0.00 0.00 43 1012.7
20260902205728 98 174 2.0 3.0 0.00 0.00 0.00 42 1012.5
20260902205224 98 197 2.0 3.0 0.00 0.00 0.00 43 1012.2
20260902204719 98 154 4.0 6.0 0.00 0.00 0.00 42 1012.7
20260902204214 98 130 0.0 2.0 0.00 0.00 0.00 41 1012.4
20260902203709 98 151 0.0 2.0 0.00 0.00 0.00 42 1012.7
20260902203203 98 199 2.0 5.0 0.00 0.00 0.00 40 1012.4
20260902202653 98 188 3.0 3.0 0.00 0.00 0.00 38 1012.9
20260902202149 98 131 2.0 9.0 0.00 0.00 0.00 41 1012.8
20260902201645 98 192 0.0 0.0 0.00 0.00 0.00 42 1013.0
20260902201139 98 142 0.0 0.0 0.00 0.00 0.00 41 1013.0
20260902200633 99 150 3.0 5.0 0.00 0.00 0.00 40 1013.0
20260902200130 99 121 1.0 2.0 0.00 0.00 0.00 42 1013.2
20260902195625 98 106 5.0 11.0 0.00 0.00 0.00 43 1013.0
20260902195125 98 73 0.0 0.0 0.00 0.00 0.00 42 1013.1
20260902194624 98 124 0.0 3.0 0.00 0.00 0.00 43 1013.3
20260902194119 98 154 3.0 8.0 0.00 0.00 0.00 43 1013.0
20260902193615 98 209 3.0 3.0 0.00 0.00 0.00 42 1013.3
20260902193114 98 136 0.0 1.0 0.00 0.00 0.00 43 1013.3
20260902192613 97 204 2.0 3.0 0.00 0.00 0.00 44 1013.4
20260902192112 98 139 0.0 5.0 0.00 0.00 0.00 43 1013.4
20260902191607 98 119 1.0 2.0 0.00 0.00 0.00 45 1013.5
20260902191101 97 127 3.0 6.0 0.00 0.00 0.00 43 1013.4
20260902190557 98 115 2.0 7.0 0.00 0.00 0.00 44 1013.6
20260902190052 98 76 0.0 3.0 0.00 0.00 0.00 46 1013.5
20260902185548 97 154 3.0 8.0 0.00 0.00 0.00 45 1013.8
20260902185044 96 211 1.0 5.0 0.00 0.00 0.00 47 1014.0
20260902184538 97 184 0.0 0.0 0.00 0.00 0.00 46 1014.0
20260902184034 96 133 0.0 2.0 0.00 0.00 0.00 46 1014.0
20260902183530 96 145 3.0 6.0 0.00 0.00 0.00 46 1014.1
20260902183026 97 115 2.0 3.0 0.00 0.00 0.00 47 1014.4
20260902182522 96 146 6.0 9.0 0.00 0.00 0.00 47 1014.2
20260902182018 96 118 0.0 1.0 0.00 0.00 0.00 46 1014.3
20260902181514 97 156 0.0 6.0 0.00 0.00 0.00 48 1014.2
20260902181008 96 157 0.0 0.0 0.00 0.00 0.00 50 1014.4
20260902180509 96 143 0.0 0.0 0.00 0.00 0.00 49 1014.6
20260902180006 95 209 0.0 1.0 0.00 0.00 0.00 49 1014.3
20260902175459 95 165 1.0 3.0 0.00 0.00 0.00 48 1014.4
20260902174955 95 253 2.0 3.0 0.00 0.00 0.00 49 1014.6
20260902174451 96 140 1.0 7.0 0.00 0.00 0.00 50 1014.5
20260902173946 96 79 1.0 2.0 0.00 0.00 0.00 49 1014.7
20260902173446 95 79 0.0 0.0 0.00 0.00 0.00 51 1014.8
20260902172941 95 122 0.0 0.0 0.00 0.00 0.00 50 1014.9
20260902172440 95 209 0.0 0.0 0.00 0.00 0.00 51 1015.0
20260902171936 94 213 0.0 7.0 0.00 0.00 0.00 50 1014.8
20260902171431 93 133 1.0 2.0 0.00 0.00 0.00 51 1015.2
20260902170927 93 247 3.0 3.0 0.00 0.00 0.00 51 1015.0
20260902170422 93 192 2.0 3.0 0.00 0.00 0.00 51 1015.0
20260902165918 93 209 2.0 2.0 0.00 0.00 0.00 52 1015.2
20260902165417 93 184 3.0 3.0 0.00 0.00 0.00 51 1015.1
20260902164912 93 214 3.0 5.0 0.00 0.00 0.00 53 1015.2
20260902164407 92 160 1.0 3.0 0.00 0.00 0.00 53 1015.2
20260902163906 92 201 0.0 2.0 0.00 0.00 0.00 54 1015.4
20260902163401 93 149 0.0 1.0 0.00 0.00 0.00 52 1015.4
20260902162859 92 86 0.0 2.0 0.00 0.00 0.00 54 1015.1
20260902162355 92 151 0.0 0.0 0.00 0.00 0.00 54 1015.1
20260902161854 92 180 0.0 2.0 0.00 0.00 0.00 53 1014.9
20260902161349 92 102 2.0 5.0 0.00 0.00 0.00 54 1015.1
20260902160846 92 114 1.0 1.0 0.00 0.00 0.00 54 1015.2
20260902160341 91 113 0.0 2.0 0.00 0.00 0.00 55 1015.4
20260902155839 91 184 0.0 2.0 0.00 0.00 0.00 55 1015.2
20260902155338 91 144 0.0 0.0 0.00 0.00 0.00 55 1015.3
20260902154833 91 143 0.0 0.0 0.00 0.00 0.00 56 1015.2
20260902154329 91 78 0.0 1.0 0.00 0.00 0.00 56 1015.4
20260902153828 90 105 0.0 0.0 0.00 0.00 0.00 58 1015.1
20260902153327 89 96 0.0 2.0 0.00 0.00 0.00 58 1015.1
20260902152823 88 224 4.0 7.0 0.00 0.00 0.00 58 1015.3
20260902152319 89 199 0.0 0.0 0.00 0.00 0.00 59 1015.1
20260902151814 88 175 0.0 0.0 0.00 0.00 0.00 58 1015.1
20260902151309 88 198 2.0 5.0 0.00 0.00 0.00 58 1015.3
20260902150804 88 172 2.0 5.0 0.00 0.00 0.00 58 1015.2
20260902150300 88 160 2.0 2.0 0.00 0.00 0.00 58 1015.3
20260902145759 87 109 1.0 2.0 0.00 0.00 0.00 59 1015.1
20260902145254 87 159 4.0 5.0 0.00 0.00 0.00 58 1015.3
20260902144750 87 123 0.0 0.0 0.00 0.00 0.00 59 1015.2
20260902144246 87 135 0.0 0.0 0.00 0.00 0.00 59 1015.1
20260902143740 86 146 2.0 3.0 0.00 0.00 0.00 60 1015.1
20260902143236 86 138 0.0 0.0 0.00 0.00 0.00 59 1015.3
20260902142731 86 172 0.0 0.0 0.00 0.00 0.00 61 1015.4
20260902142227 86 113 0.0 0.0 0.00 0.00 0.00 60 1015.1
20260902141727 86 139 0.0 2.0 0.00 0.00 0.00 61 1015.1
20260902141223 85 165 0.0 0.0 0.00 0.00 0.00 60 1015.4
20260902140713 85 124 0.0 0.0 0.00 0.00 0.00 61 1015.4
20260902140213 84 127 0.0 0.0 0.00 0.00 0.00 61 1015.2
20260902135712 84 189 2.0 2.0 0.00 0.00 0.00 61 1015.3
20260902135208 84 136 0.0 1.0 0.00 0.00 0.00 63 1015.0
20260902134707 83 172 0.0 0.0 0.00 0.00 0.00 63 1015.3
20260902134203 83 95 0.0 5.0 0.00 0.00 0.00 64 1015.3
20260902133657 82 138 0.0 2.0 0.00 0.00 0.00 64 1015.2
20260902133156 82 158 0.0 0.0 0.00 0.00 0.00 64 1015.1
20260902132647 82 111 0.0 0.0 0.00 0.00 0.00 64 1014.9
20260902132142 82 120 1.0 2.0 0.00 0.00 0.00 64 1015.2
20260902131638 82 129 1.0 5.0 0.00 0.00 0.00 65 1015.0
20260902131133 81 167 1.0 1.0 0.00 0.00 0.00 65 1015.1
20260902130629 81 95 0.0 0.0 0.00 0.00 0.00 65 1015.0
20260902130124 81 131 1.0 5.0 0.00 0.00 0.00 65 1015.2
20260902125620 81 114 0.0 0.0 0.00 0.00 0.00 66 1015.1
20260902125115 81 90 0.0 0.0 0.00 0.00 0.00 65 1015.2
20260902124612 81 158 0.0 0.0 0.00 0.00 0.00 66 1015.0
20260902124111 80 124 0.0 0.0 0.00 0.00 0.00 66 1014.7
20260902123607 80 97 0.0 0.0 0.00 0.00 0.00 66 1014.8
20260902123102 80 108 0.0 0.0 0.00 0.00 0.00 66 1015.0
20260902122601 80 101 1.0 6.0 0.00 0.00 0.00 66 1014.8
20260902122057 80 108 0.0 2.0 0.00 0.00 0.00 66 1015.0
20260902121557 80 117 0.0 0.0 0.00 0.00 0.00 66 1014.6
20260902121052 80 112 0.0 0.0 0.00 0.00 0.00 66 1014.8
20260902120548 80 162 0.0 0.0 0.00 0.00 0.00 66 1014.7
20260902120044 80 119 0.0 0.0 0.00 0.00 0.00 66 1014.6
20260902115539 80 107 0.0 0.0 0.00 0.00 0.00 66 1014.6
20260902115035 80 119 0.0 0.0 0.00 0.00 0.00 66 1014.5
20260902114531 80 107 0.0 0.0 0.00 0.00 0.00 66 1014.5
20260902114031 80 123 0.0 0.0 0.00 0.00 0.00 66 1014.7
20260902113526 80 146 0.0 0.0 0.00 0.00 0.00 66 1014.7
20260902113022 80 146 0.0 0.0 0.00 0.00 0.00 66 1014.4
20260902112517 80 115 0.0 0.0 0.00 0.00 0.00 65 1014.7
20260902112014 80 103 0.0 0.0 0.00 0.00 0.00 65 1014.3
20260902111509 80 108 0.0 0.0 0.00 0.00 0.00 64 1014.5
20260902111005 80 135 0.0 0.0 0.00 0.00 0.00 64 1014.3
20260902110501 81 112 0.0 0.0 0.00 0.00 0.00 63 1014.5
20260902105955 81 175 0.0 0.0 0.00 0.00 0.00 64 1014.2
20260902105451 81 112 0.0 0.0 0.00 0.00 0.00 63 1014.4
20260902104950 81 116 0.0 0.0 0.00 0.00 0.00 63 1014.3
20260902104446 81 137 1.0 1.0 0.00 0.00 0.00 63 1014.5
20260902103940 81 123 0.0 0.0 0.00 0.00 0.00 62 1014.5
20260902103436 81 102 0.0 0.0 0.00 0.00 0.00 63 1014.3
20260902102930 81 275 2.0 2.0 0.00 0.00 0.00 62 1014.4
20260902102428 81 109 0.0 0.0 0.00 0.00 0.00 62 1014.4
20260902101925 81 122 0.0 0.0 0.00 0.00 0.00 63 1014.4
20260902101424 81 110 0.0 0.0 0.00 0.00 0.00 62 1014.5
20260902100923 81 118 0.0 0.0 0.00 0.00 0.00 62 1014.3
20260902100418 81 113 0.0 2.0 0.00 0.00 0.00 62 1014.2
20260902095912 81 145 0.0 0.0 0.00 0.00 0.00 61 1014.2
20260902095408 81 106 0.0 1.0 0.00 0.00 0.00 61 1014.1
20260902094907 81 97 0.0 1.0 0.00 0.00 0.00 61 1014.0
20260902094403 81 166 0.0 0.0 0.00 0.00 0.00 62 1014.2
20260902093902 81 117 0.0 0.0 0.00 0.00 0.00 62 1013.9
20260902093357 80 94 0.0 0.0 0.00 0.00 0.00 62 1014.0
20260902092856 80 137 0.0 0.0 0.00 0.00 0.00 62 1013.8
20260902092347 80 110 0.0 0.0 0.00 0.00 0.00 62 1013.9
20260902091846 81 112 0.0 0.0 0.00 0.00 0.00 62 1014.0
20260902091342 81 109 0.0 0.0 0.00 0.00 0.00 62 1014.0
20260902090838 81 119 0.0 0.0 0.00 0.00 0.00 62 1014.1
20260902090332 80 151 0.0 0.0 0.00 0.00 0.00 63 1014.0
20260902085831 81 98 0.0 0.0 0.00 0.00 0.00 62 1013.8
20260902085326 81 102 0.0 0.0 0.00 0.00 0.00 62 1013.6
20260902084821 81 114 0.0 0.0 0.00 0.00 0.00 61 1013.7